El Salvador, El Salvador

4:38 AM CST on August 20, 2019 (GMT -0600)
El Salvador International

Weather History for MSLP - July, 2019

Change the Weather History Date:

Monday, July 22, 2019

  Actual Average Record
Temperature  
Mean Temperature 83 °F -  
Max Temperature 91 °F 88 °F 95 °F (1997)
Min Temperature 75 °F 71 °F 71 °F (1996)
Cooling Degree Days 18    
Growing Degree Days 33 (Base 50)    
Moisture  
Dew Point 74 °F    
Average Humidity 72    
Maximum Humidity 94    
Minimum Humidity 52    
Precipitation  
Precipitation 0.00 in - - ()
Sea Level Pressure  
Sea Level Pressure 29.87 in    
Wind  
Wind Speed 4 mph ()    
Max Wind Speed 7 mph    
Max Gust Speed -    
Visibility 6.2 miles    
Events      
Averages and records for this station are not official NWS values.
T = Trace of Precipitation, MM = Missing Value Source: Averaged Metar Reports

Daily Weather History Graph

Daily Weather History Graph

Search for Another Location

Airport or City:

Astronomy

Jul. 22, 2019 Rise Set
Actual Time 5:38 AM CST 6:26 PM CST
Civil Twilight 5:15 AM CST 6:49 PM CST
Nautical Twilight 4:48 AM CST 7:16 PM CST
Astronomical Twilight 4:21 AM CST 7:43 PM CST
Moon 10:37 PM CST (7/22) 10:11 AM CST (7/22)
Length of Visible Light 13h 33m
Length of Day
12h 47m
Waning Gibbous, 72% of the Moon is Illuminated
Jul 22
Waning Gibbous
Jul 24
Last Quarter
Jul 31
New
Aug 7
First Quarter
Aug 15
Full

Hourly Weather History & Observations

Time (CST) Temp. Heat Index Dew Point Humidity Pressure Visibility Wind Dir Wind Speed Gust Speed Precip Events Conditions
12:50 AM 80.6 °F 85.4 °F 73.4 °F 79% 29.86 in 6.2 mi North 3.5 mph - N/A   Mostly Cloudy
1:50 AM 80.6 °F 84.6 °F 71.6 °F 74% 29.86 in 6.2 mi North 4.6 mph - N/A   Mostly Cloudy
3:50 AM 82.4 °F 87.2 °F 71.6 °F 70% 29.86 in 6.2 mi North 2.3 mph - N/A   Scattered Clouds
4:50 AM 77.0 °F - 71.6 °F 83% 29.86 in 6.2 mi NNE 3.5 mph - N/A   Partly Cloudy
5:50 AM 75.2 °F - 71.6 °F 89% 29.83 in 6.2 mi ENE 3.5 mph - N/A   Scattered Clouds
6:46 AM 80.6 °F 84.6 °F 71.6 °F 74% 29.86 in 6.2 mi NNE 4.6 mph - N/A   Partly Cloudy
6:50 AM 82.4 °F 87.2 °F 71.6 °F 70% 29.86 in 6.2 mi NNE 4.6 mph - N/A   Partly Cloudy
7:50 AM 86.0 °F 93.4 °F 73.4 °F 66% 29.89 in 6.2 mi North 5.8 mph - N/A   Partly Cloudy
8:50 AM 89.6 °F 99.8 °F 75.2 °F 62% 29.89 in 6.2 mi North 5.8 mph - N/A   Partly Cloudy
9:50 AM 91.4 °F 98.4 °F 71.6 °F 52% 29.89 in 6.2 mi Variable 1.2 mph - N/A   Partly Cloudy
10:50 AM 91.4 °F 98.4 °F 71.6 °F 52% 29.86 in 6.2 mi Variable 2.3 mph - N/A   Partly Cloudy
11:50 AM 89.6 °F 102.2 °F 77.0 °F 66% 29.86 in 6.2 mi South 5.8 mph - N/A   Partly Cloudy
12:50 PM 89.6 °F 99.8 °F 75.2 °F 62% 29.86 in 6.2 mi SSW 6.9 mph - N/A   Scattered Clouds
1:50 PM 89.6 °F 98.2 °F 73.4 °F 59% 29.86 in 6.2 mi SSW 5.8 mph - N/A   Scattered Clouds
2:50 PM 89.6 °F 99.8 °F 75.2 °F 62% 29.86 in 6.2 mi SSW 5.8 mph - N/A   Partly Cloudy
3:50 PM 87.8 °F 97.6 °F 75.2 °F 66% 29.83 in 6.2 mi WSW 5.8 mph - N/A   Partly Cloudy
4:50 PM 87.8 °F 97.6 °F 75.2 °F 66% 29.83 in 6.2 mi SW 5.8 mph - N/A   Partly Cloudy
5:50 PM 84.2 °F 92.3 °F 75.2 °F 74% 29.83 in 6.2 mi West 3.5 mph - N/A   Partly Cloudy
6:50 PM 84.2 °F 92.3 °F 75.2 °F 74% 29.86 in - NNW 5.8 mph - N/A   Clear
7:50 PM 82.4 °F 89.5 °F 75.2 °F 79% 29.86 in - NNW 4.6 mph - N/A   Clear
8:50 PM 80.6 °F 86.2 °F 75.2 °F 84% 29.89 in - Variable 2.3 mph - N/A   Clear
9:50 PM 78.8 °F - 75.2 °F 89% 29.92 in - NNE 2.3 mph - N/A   Clear
10:50 PM 77.0 °F - 75.2 °F 94% 29.92 in - Variable 2.3 mph - N/A   Clear
11:50 PM 77.0 °F - 73.4 °F 89% 29.92 in - Variable 2.3 mph - N/A   Clear